Time,TemperatureF,DewpointF,PressureIn,WindDirection,WindDirectionDegrees,WindSpeedMPH,WindSpeedGustMPH,Humidity,HourlyPrecipIn,Conditions,Clouds,dailyrainin,SoftwareType,DateUTC
2013-11-20 00:12:00,31.0,26.0,30.37,East,88,0.0,3.0,83,0.00,,,0.00,,2013-11-20 05:12:00,
2013-11-20 00:22:00,31.0,26.0,30.37,ESE,117,0.0,2.0,83,0.00,,,0.00,,2013-11-20 05:22:00,
2013-11-20 00:43:00,31.0,27.0,30.37,ESE,112,0.0,3.0,84,0.00,,,0.00,,2013-11-20 05:43:00,
2013-11-20 00:53:00,30.0,26.0,30.37,SE,136,0.0,3.0,85,0.00,,,0.00,,2013-11-20 05:53:00,
2013-11-20 01:12:00,30.0,26.0,30.37,ESE,102,0.0,4.0,85,0.00,,,0.00,,2013-11-20 06:12:00,
2013-11-20 01:22:00,30.0,26.0,30.37,East,86,0.0,5.0,85,0.00,,,0.00,,2013-11-20 06:22:00,
2013-11-20 01:42:00,30.0,26.0,30.37,ESE,111,0.0,5.0,86,0.00,,,0.00,,2013-11-20 06:42:00,
2013-11-20 01:52:00,30.0,26.0,30.37,ESE,116,0.0,3.0,86,0.00,,,0.00,,2013-11-20 06:52:00,
2013-11-20 02:11:00,29.0,26.0,30.37,East,89,0.0,3.0,87,0.00,,,0.00,,2013-11-20 07:11:00,
2013-11-20 02:22:00,29.0,26.0,30.37,ESE,120,0.0,3.0,87,0.00,,,0.00,,2013-11-20 07:22:00,
2013-11-20 02:42:00,29.0,26.0,30.37,ESE,114,0.0,2.0,87,0.00,,,0.00,,2013-11-20 07:42:00,
2013-11-20 02:52:00,29.0,26.0,30.37,SE,127,0.0,3.0,88,0.00,,,0.00,,2013-11-20 07:52:00,
2013-11-20 03:22:00,29.0,26.0,30.38,ESE,122,0.0,2.0,88,0.00,,,0.00,,2013-11-20 08:22:00,
2013-11-20 03:42:00,29.0,26.0,30.38,East,95,0.0,2.0,88,0.00,,,0.00,,2013-11-20 08:42:00,
2013-11-20 03:52:00,29.0,26.0,30.38,East,97,0.0,2.0,88,0.00,,,0.00,,2013-11-20 08:52:00,
2013-11-20 04:13:00,29.0,26.0,30.38,East,94,0.0,2.0,88,0.00,,,0.00,,2013-11-20 09:13:00,
2013-11-20 04:22:00,28.0,25.0,30.38,ESE,106,0.0,2.0,88,0.00,,,0.00,,2013-11-20 09:22:00,
2013-11-20 04:43:00,29.0,26.0,30.38,ESE,103,0.0,2.0,88,0.00,,,0.00,,2013-11-20 09:43:00,
2013-11-20 04:54:00,28.0,25.0,30.37,ESE,102,0.0,3.0,88,0.00,,,0.00,,2013-11-20 09:54:00,
2013-11-20 05:13:00,28.0,25.0,30.38,ESE,118,0.0,2.0,88,0.00,,,0.00,,2013-11-20 10:13:00,
2013-11-20 05:23:00,28.0,25.0,30.37,ESE,111,0.0,2.0,88,0.00,,,0.00,,2013-11-20 10:23:00,
2013-11-20 05:43:00,28.0,25.0,30.37,ESE,122,0.0,3.0,88,0.00,,,0.00,,2013-11-20 10:43:00,
2013-11-20 05:53:00,28.0,25.0,30.38,ESE,112,0.0,3.0,88,0.00,,,0.00,,2013-11-20 10:53:00,
2013-11-20 06:12:00,28.0,25.0,30.38,ESE,109,0.0,2.0,88,0.00,,,0.00,,2013-11-20 11:12:00,
2013-11-20 06:22:00,28.0,25.0,30.38,ESE,106,0.0,3.0,88,0.00,,,0.00,,2013-11-20 11:22:00,
2013-11-20 06:43:00,28.0,25.0,30.38,East,101,0.0,2.0,88,0.00,,,0.00,,2013-11-20 11:43:00,
2013-11-20 06:52:00,28.0,25.0,30.39,East,101,0.0,1.0,88,0.00,,,0.00,,2013-11-20 11:52:00,
2013-11-20 08:11:00,28.0,25.0,30.38,ESE,109,0.0,2.0,89,0.00,,,0.00,,2013-11-20 13:11:00,
2013-11-20 08:22:00,28.0,25.0,30.38,East,90,0.0,4.0,89,0.00,,,0.00,,2013-11-20 13:22:00,
2013-11-20 08:42:00,29.0,26.0,30.38,ESE,108,0.0,6.0,88,0.00,,,0.00,,2013-11-20 13:42:00,
2013-11-20 08:52:00,30.0,27.0,30.38,ESE,108,2.0,7.0,87,0.00,,,0.00,,2013-11-20 13:52:00,
2013-11-20 09:12:00,30.0,26.0,30.38,ESE,111,0.0,4.0,85,0.00,,,0.00,,2013-11-20 14:12:00,
2013-11-20 09:22:00,31.0,27.0,30.38,ESE,111,1.0,5.0,85,0.00,,,0.00,,2013-11-20 14:22:00,
2013-11-20 09:42:00,32.0,27.0,30.38,SSE,148,1.0,8.0,83,0.00,,,0.00,,2013-11-20 14:42:00,
2013-11-20 09:52:00,33.0,28.0,30.38,ESE,117,1.0,5.0,82,0.00,,,0.00,,2013-11-20 14:52:00,
2013-11-20 10:11:00,34.0,29.0,30.37,ESE,112,1.0,7.0,81,0.00,,,0.00,,2013-11-20 15:11:00,
2013-11-20 10:22:00,34.0,28.0,30.36,ESE,121,3.0,8.0,79,0.00,,,0.00,,2013-11-20 15:22:00,
2013-11-20 10:43:00,35.0,29.0,30.36,ESE,102,1.0,6.0,79,0.00,,,0.00,,2013-11-20 15:43:00,
2013-11-20 10:54:00,35.0,29.0,30.36,SE,142,2.0,9.0,77,0.00,,,0.00,,2013-11-20 15:54:00,
2013-11-20 11:12:00,36.0,29.0,30.35,ESE,117,1.0,6.0,76,0.00,,,0.00,,2013-11-20 16:12:00,
2013-11-20 11:23:00,37.0,29.0,30.35,ESE,116,2.0,8.0,74,0.00,,,0.00,,2013-11-20 16:23:00,
2013-11-20 11:43:00,37.0,29.0,30.34,ESE,102,1.0,8.0,74,0.00,,,0.00,,2013-11-20 16:43:00,
2013-11-20 11:52:00,38.0,30.0,30.33,SE,130,1.0,10.0,73,0.00,,,0.00,,2013-11-20 16:52:00,
2013-11-20 12:12:00,38.0,30.0,30.32,ESE,103,3.0,11.0,72,0.00,,,0.00,,2013-11-20 17:12:00,
2013-11-20 12:22:00,38.0,30.0,30.32,ESE,103,3.0,11.0,72,0.00,,,0.00,,2013-11-20 17:22:00,
2013-11-20 12:42:00,39.0,30.0,30.31,East,88,3.0,9.0,70,0.00,,,0.00,,2013-11-20 17:42:00,
2013-11-20 12:52:00,39.0,30.0,30.31,East,88,3.0,9.0,70,0.00,,,0.00,,2013-11-20 17:52:00,
2013-11-20 13:12:00,40.0,30.0,30.29,East,100,2.0,6.0,67,0.00,,,0.00,,2013-11-20 18:12:00,
2013-11-20 13:22:00,40.0,30.0,30.29,SE,130,3.0,7.0,67,0.00,,,0.00,,2013-11-20 18:22:00,
2013-11-20 13:43:00,41.0,31.0,30.29,ESE,122,2.0,8.0,67,0.00,,,0.00,,2013-11-20 18:43:00,
2013-11-20 13:52:00,42.0,31.0,30.28,ESE,109,2.0,9.0,64,0.00,,,0.00,,2013-11-20 18:52:00,
2013-11-20 14:22:00,44.0,32.0,30.26,East,84,2.0,8.0,63,0.00,,,0.00,,2013-11-20 19:22:00,
2013-11-20 14:42:00,44.0,33.0,30.25,East,100,3.0,8.0,64,0.00,,,0.00,,2013-11-20 19:42:00,
2013-11-20 14:52:00,44.0,32.0,30.25,East,86,2.0,7.0,63,0.00,,,0.00,,2013-11-20 19:52:00,
2013-11-20 15:11:00,45.0,33.0,30.24,East,94,3.0,8.0,63,0.00,,,0.00,,2013-11-20 20:11:00,
2013-11-20 15:22:00,45.0,32.0,30.24,ESE,120,0.0,7.0,61,0.00,,,0.00,,2013-11-20 20:22:00,
2013-11-20 15:42:00,45.0,33.0,30.23,ENE,77,1.0,6.0,63,0.00,,,0.00,,2013-11-20 20:42:00,
2013-11-20 15:52:00,45.0,33.0,30.23,ESE,105,2.0,6.0,62,0.00,,,0.00,,2013-11-20 20:52:00,
2013-11-20 16:22:00,45.0,34.0,30.22,East,99,1.0,5.0,66,0.00,,,0.00,,2013-11-20 21:22:00,
2013-11-20 16:43:00,45.0,34.0,30.23,East,98,1.0,6.0,65,0.00,,,0.00,,2013-11-20 21:43:00,
2013-11-20 16:53:00,46.0,35.0,30.23,SE,127,1.0,8.0,65,0.00,,,0.00,,2013-11-20 21:53:00,
2013-11-20 17:13:00,45.0,34.0,30.22,SE,131,1.0,6.0,66,0.00,,,0.00,,2013-11-20 22:13:00,
2013-11-20 17:23:00,44.0,35.0,30.22,ESE,102,0.0,3.0,70,0.00,,,0.00,,2013-11-20 22:23:00,
2013-11-20 17:42:00,43.0,35.0,30.22,ESE,102,0.0,2.0,72,0.00,,,0.00,,2013-11-20 22:42:00,
2013-11-20 17:53:00,42.0,34.0,30.22,East,86,0.0,3.0,72,0.00,,,0.00,,2013-11-20 22:53:00,
2013-11-20 18:12:00,41.0,33.0,30.23,ESE,120,0.0,2.0,73,0.00,,,0.00,,2013-11-20 23:12:00,
2013-11-20 18:22:00,41.0,33.0,30.23,East,101,0.0,3.0,74,0.00,,,0.00,,2013-11-20 23:22:00,
2013-11-20 18:43:00,40.0,33.0,30.23,East,92,0.0,3.0,75,0.00,,,0.00,,2013-11-20 23:43:00,
2013-11-20 18:52:00,40.0,33.0,30.23,East,92,0.0,1.0,77,0.00,,,0.00,,2013-11-20 23:52:00,
2013-11-20 19:11:00,39.0,33.0,30.23,SE,136,0.0,2.0,78,0.00,,,0.00,,2013-11-21 00:11:00,
2013-11-20 19:22:00,39.0,33.0,30.23,East,96,0.0,3.0,78,0.00,,,0.00,,2013-11-21 00:22:00,
2013-11-20 19:42:00,39.0,33.0,30.23,East,90,0.0,3.0,78,0.00,,,0.00,,2013-11-21 00:42:00,
2013-11-20 19:52:00,39.0,33.0,30.23,SE,126,0.0,3.0,79,0.00,,,0.00,,2013-11-21 00:52:00,
2013-11-20 20:11:00,39.0,33.0,30.23,SE,126,0.0,2.0,79,0.00,,,0.00,,2013-11-21 01:11:00,
2013-11-20 20:22:00,39.0,33.0,30.23,ESE,107,0.0,2.0,79,0.00,,,0.00,,2013-11-21 01:22:00,
2013-11-20 20:42:00,39.0,33.0,30.23,SE,135,0.0,2.0,80,0.00,,,0.00,,2013-11-21 01:42:00,
2013-11-20 20:52:00,39.0,33.0,30.23,SE,127,0.0,3.0,80,0.00,,,0.00,,2013-11-21 01:52:00,
2013-11-20 21:22:00,39.0,33.0,30.22,SE,140,0.0,5.0,80,0.00,,,0.00,,2013-11-21 02:22:00,
2013-11-20 22:11:00,40.0,34.0,30.21,South,172,1.0,4.0,80,0.00,,,0.00,,2013-11-21 03:11:00,
2013-11-20 22:22:00,40.0,34.0,30.21,SE,124,0.0,5.0,80,0.00,,,0.00,,2013-11-21 03:22:00,
2013-11-20 22:43:00,40.0,34.0,30.21,ESE,115,0.0,2.0,80,0.00,,,0.00,,2013-11-21 03:43:00,
2013-11-20 22:54:00,41.0,35.0,30.21,SE,140,0.0,5.0,79,0.00,,,0.00,,2013-11-21 03:54:00,
2013-11-20 23:13:00,41.0,35.0,30.22,SE,130,0.0,3.0,79,0.00,,,0.00,,2013-11-21 04:13:00,
2013-11-20 23:24:00,41.0,35.0,30.22,SE,125,0.0,3.0,79,0.00,,,0.00,,2013-11-21 04:24:00,
2013-11-20 23:53:00,41.0,35.0,30.23,SSW,194,0.0,3.0,78,0.00,,,0.00,,2013-11-21 04:53:00,